Weather History for Piney Island, NC

Change the Weather History Date:

Saturday, September 7, 2013

  Actual Average (KMRH) Record (KMRH)
Temperature  
Mean Temperature 76 °F -  
Max Temperature 79 °F 84 °F 92 °F (1961)
Min Temperature 73 °F 68 °F 56 °F (1982)
Cooling Degree Days 10    
Growing Degree Days 26 (Base 50)    
Moisture  
Dew Point 61 °F    
Average Humidity 59    
Maximum Humidity 64    
Minimum Humidity 52    
Precipitation  
Precipitation 0.00 in - - ()
Sea Level Pressure  
Sea Level Pressure 30.07 in    
Wind  
Wind Speed 11 mph (ENE)    
Max Wind Speed 14 mph    
Max Gust Speed 21 mph    
Visibility 10 miles    
Events      
Averages and records for this station are not official NWS values.
T = Trace of Precipitation, MM = Missing Value Source: NWS Daily Summary

Daily Weather History Graph

Daily Weather History Graph

Search for Another Location

Airport:

Trip Planner

Search our weather history database for the weather conditions in past years. The results will help you decide how hot, cold, wet, or windy it might be!

Date:

Astronomy

Sep. 07, 2013 Rise Set
Actual Time 6:43 AM EDT 7:23 PM EDT
Civil Twilight 6:17 AM EDT 7:49 PM EDT
Nautical Twilight 5:47 AM EDT 8:19 PM EDT
Astronomical Twilight 5:16 AM EDT 8:50 PM EDT
Moon 8:47 AM EDT (9/7) 8:29 PM EDT (9/7)
Length of Visible Light 13h 31m
Length of Day
12h 40m
Waxing Crescent, 5% of the Moon is Illuminated
Sep 7
Waxing Crescent
Sep 12
First Quarter
Sep 19
Full
Sep 26
Last Quarter
Oct 4
New

Hourly Weather History & Observations

Time (EDT) Temp. Dew Point Humidity Pressure Visibility Wind Dir Wind Speed Gust Speed Precip Events Conditions
12:56 AM 75.9 °F 63.0 °F 64% 30.10 in 10.0 mi NE 12.7 mph 20.7 mph N/A   Clear
1:56 AM 75.9 °F 62.1 °F 62% 30.09 in 10.0 mi NE 13.8 mph - N/A   Clear
2:56 AM 75.9 °F 62.1 °F 62% 30.09 in 10.0 mi NE 12.7 mph - N/A   Clear
3:56 AM 75.9 °F 62.1 °F 62% 30.07 in 10.0 mi NE 11.5 mph - N/A   Clear
4:56 AM 75.0 °F 61.0 °F 62% 30.08 in 10.0 mi NE 10.4 mph - N/A   Clear
5:56 AM 75.0 °F 62.1 °F 64% 30.09 in 10.0 mi NE 11.5 mph - N/A   Clear
6:56 AM 75.0 °F 61.0 °F 62% 30.10 in 10.0 mi NE 11.5 mph - N/A   Clear
7:56 AM 75.9 °F 63.0 °F 64% 30.10 in 10.0 mi NNE 11.5 mph - N/A   Clear
8:56 AM 77.0 °F 63.0 °F 62% 30.11 in 10.0 mi NNE 13.8 mph - N/A   Clear
9:56 AM 78.1 °F 62.1 °F 58% 30.11 in 10.0 mi NNE 12.7 mph 18.4 mph N/A   Clear
10:56 AM 78.1 °F 63.0 °F 60% 30.12 in 10.0 mi NE 12.7 mph - N/A   Partly Cloudy
11:56 AM 78.1 °F 59.0 °F 52% 30.11 in 10.0 mi NE 11.5 mph 18.4 mph N/A   Clear
12:56 PM 78.1 °F 59.0 °F 52% 30.09 in 10.0 mi NE 10.4 mph - N/A   Clear
1:56 PM 78.1 °F 59.0 °F 52% 30.08 in 10.0 mi ENE 8.1 mph - N/A   Clear
2:56 PM 78.1 °F 59.0 °F 52% 30.06 in 10.0 mi NE 8.1 mph - N/A   Clear
3:56 PM 78.1 °F 59.0 °F 52% 30.04 in 10.0 mi ENE 8.1 mph - N/A   Clear
4:56 PM 77.0 °F 59.0 °F 54% 30.03 in 10.0 mi ENE 6.9 mph - N/A   Clear
5:56 PM 77.0 °F 59.0 °F 54% 30.02 in 10.0 mi ENE 6.9 mph - N/A   Clear
6:56 PM 75.0 °F 60.1 °F 60% 30.01 in 10.0 mi ENE 6.9 mph - N/A   Clear
7:56 PM 73.9 °F 59.0 °F 59% 30.02 in 10.0 mi ENE 8.1 mph - N/A   Clear
8:56 PM 73.0 °F 59.0 °F 61% 30.03 in 10.0 mi ESE 6.9 mph - N/A   Clear
9:56 PM 73.0 °F 57.9 °F 59% 30.04 in 10.0 mi East 8.1 mph - N/A   Clear
10:56 PM 73.0 °F 60.1 °F 64% 30.03 in 10.0 mi East 6.9 mph - N/A   Clear
11:56 PM 73.0 °F 60.1 °F 64% 30.02 in 10.0 mi ESE 5.8 mph - N/A   Clear